Simultaneous Nadir Overpasses (SNOs) Predictions

Prediction of SNOs between FY3D and AQUA Satellite Orbit:

Table of predicted SNOs for the next 14.0 days since TLE Epoch: 6/21/2025
Index Date (FY3D) Time (FY3D) Lat,Lon (FY3D) SZA (FY3D ) Date (AQUA) Time (AQUA) Lat,Lon (AQUA) SZA (AQUA ) Distance(km) Time Diff (sec)
1 06/21/2025 08:29:27 -79.59,-139.47 123.64 06/21/2025 08:29:49 -79.58,-139.32 123.65 3.15 22
2 06/21/2025 09:20:03 79.32, 30.21 56.01 06/21/2025 09:19:00 79.32, 30.27 56.01 1.43 63
3 06/23/2025 18:00:09 -79.57, 78.07 123.63 06/23/2025 18:00:48 -79.57, 78.13 123.65 1.31 39
4 06/23/2025 18:50:46 79.34,-112.54 56.06 06/23/2025 18:50:00 79.34,-112.57 56.07 0.66 46
5 06/26/2025 03:30:51 -79.56, -64.41 123.59 06/26/2025 03:31:47 -79.56, -64.55 123.58 3.01 56
6 06/26/2025 04:21:31 79.42, 104.15 56.23 06/26/2025 04:21:01 79.42, 104.21 56.23 1.25 30
7 06/28/2025 13:01:38 -79.69, 151.67 123.29 06/28/2025 13:02:49 -79.69, 151.83 123.32 3.16 71
8 06/28/2025 13:52:13 79.44, -38.64 56.36 06/28/2025 13:51:59 79.44, -38.61 56.36 0.69 14
9 06/30/2025 23:22:55 79.43, 178.83 56.50 06/30/2025 23:22:57 79.44, 178.72 56.50 2.31 2
10 07/03/2025 08:53:39 79.49, 35.73 56.75 07/03/2025 08:53:56 79.49, 35.66 56.75 1.31 17



Historial Predications of SNOs between FY3D and AQUA
